This demonstration page uses our WeatherBlox Daily Observations layout. Learn more.

Left ArrowRight Arrow

Hourly Observations for November 13, 2021

Temp ( °F °C ) Dew Point ( °F °C ) Humidity (%) Winds ( mph kmh ) Pressure ( in mb ) Visibility ( mi km ) Precip ( " mm )
12:53 am 00:53 Clear 46 7.8 43 6.1 89 89 Calm 29.98 1015 10 16 0.00 0.00
1:53 am 01:53 Clear 46 7.8 43 6.1 89 89 SW 3 6 29.96 1015 10 16 0.00 0.00
2:53 am 02:53 Clear 44 6.7 43 6.1 96 96 Calm 29.95 1014 10 16 0.00 0.00
3:53 am 03:53 Clear 46 7.8 43 6.1 89 89 S 3 6 29.96 1015 10 16 0.00 0.00
4:53 am 04:53 Clear 47 8.3 42 5.6 83 83 Calm 29.97 1015 10 16 0.00 0.00
5:53 am 05:53 Clear 46 7.8 42 5.6 86 86 Calm 29.98 1015 10 16 0.00 0.00
6:53 am 06:53 Clear 45 7.2 41 5 86 86 Calm 30.00 1016 10 16 0.00 0.00
7:53 am 07:53 Sunny 46 7.8 41 5 83 83 Calm 30.02 1017 10 16 0.00 0.00
8:53 am 08:53 Sunny 49 9.4 41 5 74 74 NNW 10 17 30.03 1017 10 16 0.00 0.00
9:53 am 09:53 Sunny 50 10 38 3.3 63 63 VRB 7 11 30.04 1017 10 16 0.00 0.00
10:53 am 10:53 Sunny 51 10.6 35 1.7 54 54 NW 7 11 30.05 1018 10 16 0.00 0.00
11:53 am 11:53 Mostly Sunny 53 11.7 34 1.1 48 48 N 9 15 30.05 1018 10 16 0.00 0.00
12:53 pm 12:53 Sunny 54 12.2 32 0 43 43 W 13 20 30.01 1016 10 16 0.00 0.00
1:53 pm 13:53 Sunny 54 12.2 33 0.6 45 45 WNW 12 19 30.01 1016 10 16 0.00 0.00
2:53 pm 14:53 Sunny 54 12.2 31 -0.6 42 42 NNW 14 22 29.99 1016 10 16 0.00 0.00
3:53 pm 15:53 Sunny 54 12.2 31 -0.6 42 42 WNW 13 20 30.01 1016 10 16 0.00 0.00
4:53 pm 16:53 Sunny 52 11.1 30 -1.1 43 43 NNW 10 17 30.03 1017 10 16 0.00 0.00
5:53 pm 17:53 Clear 48 8.9 30 -1.1 50 50 NW 5 7 30.05 1018 10 16 0.00 0.00
6:53 pm 18:53 Clear 45 7.2 33 0.6 63 63 Calm 30.07 1018 10 16 0.00 0.00
7:53 pm 19:53 Clear 43 6.1 32 0 65 65 Calm 30.08 1019 10 16 0.00 0.00
8:53 pm 20:53 Clear 42 5.6 32 0 68 68 Calm 30.08 1019 10 16 0.00 0.00
9:53 pm 21:53 Clear 40 4.4 31 -0.6 70 70 W 6 9 30.09 1019 10 16 0.00 0.00
10:53 pm 22:53 Clear 39 3.9 31 -0.6 73 73 W 7 11 30.10 1019 10 16 0.00 0.00
11:53 pm 23:53 Clear 39 3.9 30 -1.1 70 70 W 3 6 30.10 1019 10 16 0.00 0.00

Powered by AerisWeather